CZ-6A DEB

Satellite information

Favourite Embed

Satellite Type and Status

DEBRISIN ORBIT

Key statistics

Satellite CZ-6A DEB at a glance.

Uptime

1129

Days in orbit

Revolutions

≈ 14.7

Per day

Orbit

SSO

Sun Synchronous Orbit

Inclination

98.6

Latest

Satellite identification and parameters

Extended collection of information and parameters for CZ-6A DEB.

Object identification

Identified? True

Debris? True

Object name: CZ-6A DEB

International designator: 2022-151WG

Object number (NORAD): 55215

Object ID (CCSDS): 55215

Country: PEOPLES REPUBLIC OF CHINA (PRC)

Current information (Y/N): Y

RCS size: SMALL

Orbital parameters

Period: 97.977 minutes

Inclination: 98.644 deg

SMA: 7040.058 km

Apoapsis: 705.43 km

Periapsis: 618.417 km

RAAN: 33.8418 deg

Eccentricy: 0.00617989

Argument of periapsis: 166.8924 deg

Mean anomaly: 193.3903 deg

Mean motion: 14.6973272 rev/day

Mean motion (dot): 0.00023578 rev/day2

B* drag term: 0.0038386935 1/REarth

Two-line elements (TLE)

Creation date: Dec. 14, 2025, 3:07 a.m.

Reference frame: TEME

Reference center: EARTH

Epoch: Dec. 13, 2025, 3:55 p.m. UTC

TLE line 0: 0 CZ-6A DEB

TLE line 1: 1 55215U 22151WG 25347.66384377 .00023578 00000-0 38387-2 0 9990

TLE line 2: 2 55215 98.6440 33.8418 0061799 166.8924 193.3903 14.69732720157389

Live tracking on map

Real-time ground track for satellite CZ-6A DEB.

In-orbit conjunctions

A list of the most updated potential collisions computed for object CZ-6A DEB.

Target Orbit TCA Probability of collision Miss distance Type
RUBIN 3/SL-8 SSO 2025-10-05 08:49:48 0.0001967058 999.0 (m) PAYLOAD

Associated space launch

Chinese satellite reported for atmospheric/ocean/environmental/spatial parameter research purposes, details TBD.

CZ-6A DEB was lifted into orbit during the mission ‘Long March 6A | Yunhai 3’, on board a Long March 6A space rocket.

The launch took place on Nov. 11, 2022, 10:52 p.m. from Launch Complex 9A.

For more information about the launch, click the button.

Launch to space Long March 6A | Yunhai 3
Long March 6A | Yunhai 3

Agency: N/A

Status: Launch Successful

Launch date: Nov. 11, 2022, 10:52 p.m. UTC

Rocket: Long March 6A

Launch pad: Launch Complex 9A

Location: Taiyuan Satellite Launch Center, People's Republic of China

...

Latest news about this satellite

There are no fresh news available about this satellite. Check back as we update our databases every day.


Newsletter sign-up

Weekly statistics, charts and insights to help you stay on top of the space industry.